Terug naar catalogus

FLOCK 4BE 6

ActiefWetenschapSSO
NORAD 60516·PAYLOAD·🇺🇸 United States

Gelanceerd Aug 16, 2024 vanaf Vandenberg Space Force Base

Loading…

Volgende Passages (komende 24 uur)

TLE

VersSource: CelesTrak SupGP

Epoch: Sep 14, 2026, 18:45 UTC

1 60516C 24149AV  26257.78145833  .00031046  00000+0  72491-3 0  2575
2 60516  97.3739 342.2386 0002616 349.0345 223.2317 15.42209140    18

Volg FLOCK 4BE 6 in realtime met AllMySat

Download on the App Store